TimeCST,TemperatureF,Dew PointF,Humidity,Sea Level PressureIn,VisibilityMPH,Wind Direction,Wind SpeedMPH,Gust SpeedMPH,PrecipitationIn,Events,Conditions,WindDirDegrees,DateUTC
12:15 AM,46.2,32.0,58,30.09,10.0,WNW,13.8,18.4,N/A,,Clear,300,2013-01-20 06:15:00
12:35 AM,45.9,31.1,56,30.10,10.0,NW,12.7,18.4,N/A,,Clear,310,2013-01-20 06:35:00
12:55 AM,45.1,31.1,58,30.11,10.0,WNW,12.7,-,N/A,,Clear,300,2013-01-20 06:55:00
1:15 AM,45.3,30.9,57,30.13,10.0,NW,13.8,20.7,N/A,,Clear,310,2013-01-20 07:15:00
1:35 AM,44.2,30.7,59,30.14,10.0,NW,12.7,20.7,N/A,,Clear,310,2013-01-20 07:35:00
1:55 AM,43.9,30.6,59,30.15,10.0,NW,13.8,-,N/A,,Clear,310,2013-01-20 07:55:00
2:15 AM,42.6,30.9,63,30.16,10.0,WNW,11.5,-,N/A,,Clear,300,2013-01-20 08:15:00
2:35 AM,41.5,31.1,66,30.17,10.0,WNW,10.4,-,N/A,,Clear,300,2013-01-20 08:35:00
2:55 AM,41.5,30.7,65,30.17,10.0,NW,10.4,-,N/A,,Clear,310,2013-01-20 08:55:00
3:15 AM,40.3,30.2,67,30.18,10.0,WNW,9.2,-,N/A,,Clear,300,2013-01-20 09:15:00
3:35 AM,39.7,29.1,66,30.18,10.0,WNW,11.5,-,N/A,,Clear,300,2013-01-20 09:35:00
3:55 AM,38.8,28.4,66,30.19,10.0,NW,9.2,-,N/A,,Clear,310,2013-01-20 09:55:00
4:15 AM,38.1,27.3,65,30.20,10.0,NNW,13.8,19.6,N/A,,Clear,340,2013-01-20 10:15:00
4:35 AM,36.3,27.1,69,30.21,10.0,NNW,19.6,-,N/A,,Clear,340,2013-01-20 10:35:00
4:55 AM,33.4,26.4,75,30.23,10.0,NNW,19.6,24.2,N/A,,Clear,340,2013-01-20 10:55:00
5:15 AM,32.4,25.7,76,30.24,10.0,NNW,15.0,-,N/A,,Clear,330,2013-01-20 11:15:00
5:35 AM,32.0,23.9,72,30.25,10.0,NNW,11.5,20.7,N/A,,Clear,340,2013-01-20 11:35:00
5:55 AM,31.1,23.0,72,30.26,10.0,NNW,10.4,-,N/A,,Clear,340,2013-01-20 11:55:00
6:15 AM,30.2,17.6,60,30.26,10.0,NNW,15.0,-,N/A,,Clear,330,2013-01-20 12:15:00
6:35 AM,29.8,16.7,58,30.27,10.0,NNW,12.7,-,N/A,,Clear,330,2013-01-20 12:35:00
6:55 AM,29.7,14.5,53,30.27,10.0,NNW,17.3,-,N/A,,Clear,330,2013-01-20 12:55:00
7:15 AM,29.1,14.7,55,30.28,10.0,North,9.2,-,N/A,,Clear,350,2013-01-20 13:15:00
7:35 AM,28.8,13.1,52,30.29,10.0,NNW,13.8,-,N/A,,Clear,340,2013-01-20 13:35:00
7:55 AM,28.8,13.6,53,30.30,10.0,NNW,12.7,-,N/A,,Clear,330,2013-01-20 13:55:00
8:15 AM,28.4,14.0,55,30.31,10.0,NNW,13.8,18.4,N/A,,Clear,340,2013-01-20 14:15:00
8:35 AM,28.9,14.7,55,30.31,10.0,North,11.5,-,N/A,,Clear,350,2013-01-20 14:35:00
8:55 AM,28.9,14.4,55,30.32,10.0,NNW,11.5,-,N/A,,Clear,340,2013-01-20 14:55:00
9:15 AM,29.3,14.9,55,30.31,10.0,North,9.2,-,N/A,,Clear,10,2013-01-20 15:15:00
9:35 AM,29.3,15.8,57,30.33,10.0,NNW,6.9,-,N/A,,Clear,330,2013-01-20 15:35:00
9:55 AM,30.2,16.3,56,30.34,10.0,North,6.9,-,N/A,,Clear,350,2013-01-20 15:55:00
10:15 AM,30.7,16.7,56,30.33,10.0,NNW,8.1,-,N/A,,Clear,330,2013-01-20 16:15:00
10:35 AM,31.1,16.0,54,30.32,10.0,North,5.8,-,N/A,,Clear,350,2013-01-20 16:35:00
10:55 AM,31.3,15.1,51,30.33,10.0,North,5.8,-,N/A,,Clear,350,2013-01-20 16:55:00
11:15 AM,31.8,15.3,50,30.32,10.0,Calm,Calm,-,N/A,,Clear,0,2013-01-20 17:15:00
11:35 AM,32.2,14.7,49,30.30,10.0,North,5.8,-,N/A,,Clear,360,2013-01-20 17:35:00
11:55 AM,33.1,15.6,49,30.29,10.0,NNW,5.8,-,N/A,,Clear,330,2013-01-20 17:55:00
12:15 PM,33.3,14.2,46,30.28,10.0,WNW,4.6,-,N/A,,Clear,300,2013-01-20 18:15:00
12:35 PM,33.8,13.5,43,30.27,10.0,North,5.8,-,N/A,,Clear,350,2013-01-20 18:35:00
12:55 PM,34.0,14.2,44,30.26,10.0,West,3.5,-,N/A,,Clear,280,2013-01-20 18:55:00
1:15 PM,35.1,16.9,48,30.26,10.0,North,6.9,-,N/A,,Clear,360,2013-01-20 19:15:00
1:35 PM,35.4,17.6,48,30.26,10.0,NNW,6.9,-,N/A,,Clear,330,2013-01-20 19:35:00
1:55 PM,35.2,15.6,45,30.26,10.0,NW,10.4,-,N/A,,Clear,320,2013-01-20 19:55:00
2:15 PM,34.5,14.4,44,30.28,10.0,North,6.9,-,N/A,,Clear,350,2013-01-20 20:15:00
2:35 PM,34.7,17.1,49,30.28,10.0,WNW,8.1,-,N/A,,Clear,300,2013-01-20 20:35:00
2:55 PM,33.8,17.6,52,30.29,10.0,NW,8.1,-,N/A,,Unknown,310,2013-01-20 20:55:00
3:15 PM,33.8,17.8,52,30.29,10.0,NW,10.4,-,N/A,,Clear,310,2013-01-20 21:15:00
3:35 PM,33.6,17.2,51,30.30,10.0,NW,8.1,-,N/A,,Clear,320,2013-01-20 21:35:00
3:55 PM,32.9,18.3,55,30.28,10.0,NNW,9.2,-,N/A,,Scattered Clouds,340,2013-01-20 21:55:00
4:15 PM,32.5,18.0,55,30.27,10.0,North,11.5,-,N/A,,Overcast,350,2013-01-20 22:15:00
4:35 PM,32.0,16.3,52,30.28,10.0,North,9.2,-,N/A,,Mostly Cloudy,350,2013-01-20 22:35:00
4:55 PM,31.5,17.8,57,30.28,10.0,NNW,9.2,-,N/A,,Scattered Clouds,340,2013-01-20 22:55:00
5:15 PM,31.1,17.8,58,30.29,10.0,NNW,10.4,-,N/A,,Scattered Clouds,340,2013-01-20 23:15:00
5:35 PM,30.2,16.9,58,30.28,10.0,NNW,6.9,-,N/A,,Overcast,340,2013-01-20 23:35:00
5:55 PM,29.7,18.1,62,30.28,10.0,NNW,4.6,-,N/A,,Mostly Cloudy,340,2013-01-20 23:55:00
6:15 PM,29.3,18.1,63,30.28,10.0,North,6.9,-,N/A,,Scattered Clouds,350,2013-01-21 00:15:00
6:35 PM,28.4,17.6,64,30.29,10.0,NNW,5.8,-,N/A,,Clear,340,2013-01-21 00:35:00
6:55 PM,28.8,17.1,62,30.28,10.0,North,6.9,-,N/A,,Clear,350,2013-01-21 00:55:00
7:15 PM,28.4,17.8,64,30.27,10.0,North,8.1,-,N/A,,Clear,360,2013-01-21 01:15:00
7:35 PM,28.2,18.7,67,30.28,10.0,NNW,6.9,-,N/A,,Clear,340,2013-01-21 01:35:00
7:55 PM,27.9,18.3,67,30.28,10.0,NNW,6.9,-,N/A,,Clear,340,2013-01-21 01:55:00
8:15 PM,27.9,18.0,66,30.28,10.0,NNW,5.8,-,N/A,,Scattered Clouds,340,2013-01-21 02:15:00
8:35 PM,27.9,18.1,67,30.28,10.0,NNW,5.8,-,N/A,,Scattered Clouds,340,2013-01-21 02:35:00
8:55 PM,27.9,18.3,67,30.28,10.0,NNW,8.1,-,N/A,,Mostly Cloudy,340,2013-01-21 02:55:00
9:15 PM,28.2,17.6,64,30.28,10.0,NNW,10.4,-,N/A,,Overcast,340,2013-01-21 03:15:00
9:35 PM,28.2,16.9,63,30.27,10.0,North,10.4,-,N/A,,Overcast,350,2013-01-21 03:35:00
9:55 PM,27.9,14.7,58,30.28,10.0,North,9.2,-,N/A,,Overcast,360,2013-01-21 03:55:00
10:15 PM,27.9,15.4,60,30.28,10.0,North,9.2,-,N/A,,Overcast,350,2013-01-21 04:15:00
10:35 PM,27.5,15.4,61,30.27,10.0,NNW,6.9,-,N/A,,Overcast,330,2013-01-21 04:35:00
10:55 PM,27.5,16.3,63,30.27,10.0,North,9.2,-,N/A,,Overcast,350,2013-01-21 04:55:00
11:15 PM,27.3,15.3,61,30.26,10.0,NNW,8.1,-,N/A,,Overcast,340,2013-01-21 05:15:00
11:35 PM,27.3,15.8,62,30.26,10.0,NNW,6.9,-,N/A,,Overcast,340,2013-01-21 05:35:00
11:55 PM,27.1,14.5,59,30.25,10.0,NNW,8.1,-,N/A,,Overcast,330,2013-01-21 05:55:00